Time,TemperatureF,DewpointF,PressureIn,WindDirection,WindDirectionDegrees,WindSpeedMPH,WindSpeedGustMPH,Humidity,HourlyPrecipIn,Conditions,Clouds,dailyrainin,SolarRadiationWatts/m^2,SoftwareType,DateUTC
2013-03-25 00:00:00,31.1,26.2,29.85,North,5,3.0,4.0,82,0.00,,,0.00,0.0,meteohub,2013-03-25 04:00:00,
2013-03-25 00:05:00,31.6,26.2,29.85,NE,55,3.0,5.0,80,0.00,,,0.00,0.0,meteohub,2013-03-25 04:05:00,
2013-03-25 00:10:00,31.8,26.1,29.85,NE,49,3.0,9.0,79,0.00,,,0.00,0.0,meteohub,2013-03-25 04:10:00,
2013-03-25 00:15:00,32.4,26.2,29.85,NNE,15,4.0,9.0,78,0.00,,,0.00,0.0,meteohub,2013-03-25 04:15:00,
2013-03-25 00:20:00,32.5,26.1,29.85,NE,46,2.0,11.0,77,0.00,,,0.00,0.0,meteohub,2013-03-25 04:20:00,
2013-03-25 00:25:00,32.7,26.1,29.85,ENE,71,4.0,11.0,76,0.00,,,0.00,0.0,meteohub,2013-03-25 04:25:00,
2013-03-25 00:30:00,33.1,26.1,29.85,NNE,15,14.0,17.0,75,0.00,,,0.00,0.0,meteohub,2013-03-25 04:30:00,
2013-03-25 00:35:00,33.1,26.1,29.85,ENE,69,8.0,18.0,75,0.00,,,0.00,0.0,meteohub,2013-03-25 04:35:00,
2013-03-25 00:40:00,33.1,26.1,29.85,NNE,22,3.0,22.0,75,0.00,,,0.00,0.0,meteohub,2013-03-25 04:40:00,
2013-03-25 00:46:00,33.1,25.7,29.85,East,80,8.0,22.0,74,0.00,,,0.00,0.0,meteohub,2013-03-25 04:46:00,
2013-03-25 00:51:00,33.1,26.1,29.86,ENE,75,10.0,22.0,75,0.00,,,0.00,0.0,meteohub,2013-03-25 04:51:00,
2013-03-25 00:56:00,33.1,25.7,29.86,NE,52,8.0,18.0,74,0.00,,,0.00,0.0,meteohub,2013-03-25 04:56:00,
2013-03-25 01:00:00,32.9,25.5,29.86,NE,50,7.0,18.0,74,0.00,,,0.00,0.0,meteohub,2013-03-25 05:00:00,
2013-03-25 01:05:00,32.9,25.9,29.86,NE,55,10.0,16.0,75,0.00,,,0.00,0.0,meteohub,2013-03-25 05:05:00,
2013-03-25 01:11:00,32.7,25.7,29.86,East,94,14.0,15.0,75,0.00,,,0.00,0.0,meteohub,2013-03-25 05:11:00,
2013-03-25 01:16:00,32.7,25.7,29.86,East,89,15.0,15.0,75,0.00,,,0.00,0.0,meteohub,2013-03-25 05:16:00,
2013-03-25 01:21:00,32.7,25.7,29.86,ENE,64,9.0,17.0,75,0.00,,,0.00,0.0,meteohub,2013-03-25 05:21:00,
2013-03-25 01:26:00,32.7,25.7,29.86,NE,55,6.0,17.0,75,0.00,,,0.00,0.0,meteohub,2013-03-25 05:26:00,
2013-03-25 01:31:00,32.7,25.7,29.86,ENE,73,5.0,17.0,75,0.00,,,0.00,0.0,meteohub,2013-03-25 05:31:00,
2013-03-25 01:36:00,32.7,25.7,29.86,ENE,65,7.0,17.0,75,0.00,,,0.00,0.0,meteohub,2013-03-25 05:36:00,
2013-03-25 01:41:00,32.5,25.9,29.86,NE,39,7.0,17.0,76,0.00,,,0.00,0.0,meteohub,2013-03-25 05:41:00,
2013-03-25 01:46:00,32.5,25.9,29.86,NNE,33,3.0,16.0,76,0.00,,,0.00,0.0,meteohub,2013-03-25 05:46:00,
2013-03-25 01:51:00,32.5,25.9,29.86,ENE,57,4.0,16.0,76,0.00,,,0.00,0.0,meteohub,2013-03-25 05:51:00,
2013-03-25 01:56:00,32.5,26.1,29.86,SE,132,6.0,16.0,77,0.00,,,0.00,0.0,meteohub,2013-03-25 05:56:00,
2013-03-25 02:01:00,32.5,26.1,29.86,ENE,59,5.0,14.0,77,0.00,,,0.00,0.0,meteohub,2013-03-25 06:01:00,
2013-03-25 02:06:00,32.7,26.2,29.86,ESE,121,4.0,15.0,77,0.00,,,0.00,0.0,meteohub,2013-03-25 06:06:00,
2013-03-25 02:11:00,32.7,26.1,29.86,NNE,32,4.0,17.0,76,0.00,,,0.00,0.0,meteohub,2013-03-25 06:11:00,
2013-03-25 02:16:00,32.7,26.1,29.86,East,90,7.0,17.0,76,0.00,,,0.00,0.0,meteohub,2013-03-25 06:16:00,
2013-03-25 02:22:00,32.9,25.9,29.86,ENE,73,8.0,17.0,75,0.00,,,0.00,0.0,meteohub,2013-03-25 06:22:00,
2013-03-25 02:27:00,32.9,25.5,29.85,ENE,71,8.0,18.0,74,0.00,,,0.00,0.0,meteohub,2013-03-25 06:27:00,
2013-03-25 02:32:00,32.9,25.2,29.85,NNE,26,6.0,18.0,73,0.00,,,0.00,0.0,meteohub,2013-03-25 06:32:00,
2013-03-25 02:37:00,32.9,25.5,29.85,ENE,63,10.0,20.0,74,0.00,,,0.00,0.0,meteohub,2013-03-25 06:37:00,
2013-03-25 02:42:00,32.7,25.3,29.86,ENE,71,5.0,20.0,74,0.00,,,0.00,0.0,meteohub,2013-03-25 06:42:00,
2013-03-25 02:47:00,32.7,25.0,29.86,NE,47,9.0,20.0,73,0.00,,,0.00,0.0,meteohub,2013-03-25 06:47:00,
2013-03-25 02:52:00,32.7,25.0,29.86,NE,35,7.0,19.0,73,0.00,,,0.00,0.0,meteohub,2013-03-25 06:52:00,
2013-03-25 02:57:00,32.7,25.3,29.86,East,80,7.0,19.0,74,0.00,,,0.00,0.0,meteohub,2013-03-25 06:57:00,
2013-03-25 03:02:00,32.5,25.5,29.86,NNE,17,3.0,15.0,75,0.00,,,0.00,0.0,meteohub,2013-03-25 07:02:00,
2013-03-25 03:07:00,32.5,25.5,29.86,NNE,30,3.0,15.0,75,0.00,,,0.00,0.0,meteohub,2013-03-25 07:07:00,
2013-03-25 03:12:00,32.4,25.7,29.86,NNE,28,5.0,15.0,76,0.00,,,0.00,0.0,meteohub,2013-03-25 07:12:00,
2013-03-25 03:17:00,32.4,25.7,29.86,ENE,74,12.0,15.0,76,0.00,,,0.00,0.0,meteohub,2013-03-25 07:17:00,
2013-03-25 03:22:00,32.2,25.7,29.86,ENE,76,3.0,21.0,77,0.00,,,0.00,0.0,meteohub,2013-03-25 07:22:00,
2013-03-25 03:27:00,32.0,25.9,29.85,East,79,9.0,21.0,78,0.00,,,0.00,0.0,meteohub,2013-03-25 07:27:00,
2013-03-25 03:32:00,31.8,25.7,29.85,ENE,77,8.0,21.0,78,0.00,,,0.00,0.0,meteohub,2013-03-25 07:32:00,
2013-03-25 03:37:00,31.6,25.9,29.85,ENE,63,7.0,16.0,79,0.00,,,0.00,0.0,meteohub,2013-03-25 07:37:00,
2013-03-25 03:42:00,31.5,26.1,29.85,ENE,72,2.0,14.0,80,0.00,,,0.00,0.0,meteohub,2013-03-25 07:42:00,
2013-03-25 03:47:00,31.5,26.1,29.85,NNE,24,1.0,13.0,80,0.00,,,0.00,0.0,meteohub,2013-03-25 07:47:00,
2013-03-25 03:52:00,31.3,26.1,29.85,NNE,33,5.0,10.0,81,0.00,,,0.00,0.0,meteohub,2013-03-25 07:52:00,
2013-03-25 03:57:00,31.3,25.9,29.85,NE,41,3.0,11.0,80,0.00,,,0.00,0.0,meteohub,2013-03-25 07:57:00,
2013-03-25 04:02:00,31.5,26.1,29.85,NE,54,4.0,11.0,80,0.00,,,0.00,0.0,meteohub,2013-03-25 08:02:00,
2013-03-25 04:07:00,31.5,26.1,29.85,NNE,26,7.0,11.0,80,0.00,,,0.00,0.0,meteohub,2013-03-25 08:07:00,
2013-03-25 04:12:00,31.5,26.1,29.85,ENE,66,5.0,15.0,80,0.00,,,0.00,0.0,meteohub,2013-03-25 08:12:00,
2013-03-25 04:17:00,31.3,25.9,29.84,ENE,76,3.0,15.0,80,0.00,,,0.00,0.0,meteohub,2013-03-25 08:17:00,
2013-03-25 04:22:00,31.3,25.9,29.84,NE,50,3.0,15.0,80,0.00,,,0.00,0.0,meteohub,2013-03-25 08:22:00,
2013-03-25 04:27:00,31.5,26.1,29.84,NE,44,2.0,13.0,80,0.00,,,0.00,0.0,meteohub,2013-03-25 08:27:00,
2013-03-25 04:32:00,31.5,25.7,29.84,ENE,70,4.0,11.0,79,0.00,,,0.00,0.0,meteohub,2013-03-25 08:32:00,
2013-03-25 04:37:00,31.5,25.7,29.84,NNE,30,3.0,11.0,79,0.00,,,0.00,0.0,meteohub,2013-03-25 08:37:00,
2013-03-25 04:42:00,31.5,25.7,29.84,East,86,6.0,11.0,79,0.00,,,0.00,0.0,meteohub,2013-03-25 08:42:00,
2013-03-25 04:47:00,31.5,25.7,29.84,NE,55,3.0,11.0,79,0.00,,,0.00,0.0,meteohub,2013-03-25 08:47:00,
2013-03-25 04:52:00,31.6,25.9,29.84,NE,35,3.0,12.0,79,0.00,,,0.00,0.0,meteohub,2013-03-25 08:52:00,
2013-03-25 04:57:00,31.5,25.7,29.84,ENE,65,4.0,12.0,79,0.00,,,0.00,0.0,meteohub,2013-03-25 08:57:00,
2013-03-25 05:02:00,31.5,25.7,29.84,NNE,32,8.0,12.0,79,0.00,,,0.00,0.0,meteohub,2013-03-25 09:02:00,
2013-03-25 05:07:00,31.5,25.7,29.84,ENE,59,3.0,11.0,79,0.00,,,0.00,0.0,meteohub,2013-03-25 09:07:00,
2013-03-25 05:12:00,31.5,26.1,29.84,NE,42,4.0,10.0,80,0.00,,,0.00,0.0,meteohub,2013-03-25 09:12:00,
2013-03-25 05:17:00,31.5,25.7,29.84,NNE,33,2.0,9.0,79,0.00,,,0.00,0.0,meteohub,2013-03-25 09:17:00,
2013-03-25 05:22:00,31.5,25.7,29.84,NNE,17,13.0,13.0,79,0.00,,,0.00,0.0,meteohub,2013-03-25 09:22:00,
2013-03-25 05:28:00,31.5,25.7,29.84,NNE,33,4.0,9.0,79,0.00,,,0.00,0.0,meteohub,2013-03-25 09:28:00,
2013-03-25 05:33:00,31.5,25.7,29.83,East,81,5.0,13.0,79,0.00,,,0.00,0.0,meteohub,2013-03-25 09:33:00,
2013-03-25 05:38:00,31.5,25.7,29.83,North,9,4.0,13.0,79,0.00,,,0.00,0.0,meteohub,2013-03-25 09:38:00,
2013-03-25 05:43:00,31.5,25.7,29.83,ENE,69,5.0,12.0,79,0.00,,,0.00,0.0,meteohub,2013-03-25 09:43:00,
2013-03-25 05:48:00,31.5,25.7,29.83,NE,38,3.0,13.0,79,0.00,,,0.00,0.0,meteohub,2013-03-25 09:48:00,
2013-03-25 05:53:00,31.3,25.5,29.83,NE,44,5.0,13.0,79,0.00,,,0.00,0.0,meteohub,2013-03-25 09:53:00,
2013-03-25 05:58:00,31.3,25.5,29.83,NNE,19,4.0,13.0,79,0.00,,,0.00,0.0,meteohub,2013-03-25 09:58:00,
2013-03-25 06:03:00,31.3,25.5,29.83,NE,52,3.0,12.0,79,0.00,,,0.00,0.0,meteohub,2013-03-25 10:03:00,
2013-03-25 06:08:00,31.3,25.5,29.83,NNE,32,3.0,12.0,79,0.00,,,0.00,0.0,meteohub,2013-03-25 10:08:00,
2013-03-25 06:13:00,31.3,25.5,29.83,NNE,24,9.0,13.0,79,0.00,,,0.00,0.0,meteohub,2013-03-25 10:13:00,
2013-03-25 06:18:00,31.3,25.5,29.83,NNE,28,10.0,14.0,79,0.00,,,0.00,0.0,meteohub,2013-03-25 10:18:00,
2013-03-25 06:23:00,31.3,25.9,29.83,NNE,32,6.0,18.0,80,0.00,,,0.00,0.0,meteohub,2013-03-25 10:23:00,
2013-03-25 06:28:00,31.3,25.9,29.83,North,351,4.0,18.0,80,0.00,,,0.00,0.0,meteohub,2013-03-25 10:28:00,
2013-03-25 06:33:00,31.3,25.9,29.83,East,83,6.0,18.0,80,0.00,,,0.00,0.0,meteohub,2013-03-25 10:33:00,
2013-03-25 06:38:00,31.1,25.7,29.83,ENE,59,5.0,13.0,80,0.00,,,0.00,0.0,meteohub,2013-03-25 10:38:00,
2013-03-25 06:43:00,31.1,25.7,29.83,NE,51,2.0,13.0,80,0.00,,,0.00,0.0,meteohub,2013-03-25 10:43:00,
2013-03-25 06:48:00,31.1,25.7,29.83,NE,48,6.0,13.0,80,0.00,,,0.00,0.0,meteohub,2013-03-25 10:48:00,
2013-03-25 06:54:00,31.1,25.7,29.83,NNE,22,3.0,12.0,80,0.00,,,0.00,0.0,meteohub,2013-03-25 10:54:00,
2013-03-25 06:59:00,31.1,25.7,29.83,NE,55,5.0,12.0,80,0.00,,,0.00,0.0,meteohub,2013-03-25 10:59:00,
2013-03-25 07:04:00,31.1,25.7,29.83,NE,52,4.0,13.0,80,0.00,,,0.00,0.0,meteohub,2013-03-25 11:04:00,
2013-03-25 07:09:00,31.1,25.7,29.83,ESE,112,7.0,13.0,80,0.00,,,0.00,0.0,meteohub,2013-03-25 11:09:00,
2013-03-25 07:14:00,31.1,25.7,29.83,NNE,27,2.0,9.0,80,0.00,,,0.00,0.0,meteohub,2013-03-25 11:14:00,
2013-03-25 07:19:00,30.9,25.5,29.83,NNE,30,4.0,9.0,80,0.00,,,0.00,0.0,meteohub,2013-03-25 11:19:00,
2013-03-25 07:24:00,30.9,25.5,29.83,NE,53,6.0,10.0,80,0.00,,,0.00,0.0,meteohub,2013-03-25 11:24:00,
2013-03-25 07:29:00,30.9,25.5,29.83,NNE,24,5.0,10.0,80,0.00,,,0.00,0.0,meteohub,2013-03-25 11:29:00,
2013-03-25 07:34:00,30.9,25.5,29.83,NNE,28,3.0,13.0,80,0.00,,,0.00,0.0,meteohub,2013-03-25 11:34:00,
2013-03-25 07:39:00,30.7,25.3,29.83,NE,39,6.0,13.0,80,0.00,,,0.00,5.0,meteohub,2013-03-25 11:39:00,
2013-03-25 07:44:00,30.7,25.3,29.83,NE,34,3.0,11.0,80,0.00,,,0.00,9.0,meteohub,2013-03-25 11:44:00,
2013-03-25 07:49:00,30.7,25.3,29.83,NE,34,3.0,11.0,80,0.00,,,0.00,12.0,meteohub,2013-03-25 11:49:00,
2013-03-25 07:54:00,30.7,25.3,29.83,NNE,26,5.0,11.0,80,0.00,,,0.00,16.0,meteohub,2013-03-25 11:54:00,
2013-03-25 07:59:00,30.7,25.3,29.83,NE,35,3.0,10.0,80,0.00,,,0.00,21.0,meteohub,2013-03-25 11:59:00,
2013-03-25 08:04:00,30.7,25.5,29.83,ENE,62,8.0,9.0,81,0.00,,,0.00,25.0,meteohub,2013-03-25 12:04:00,
2013-03-25 08:09:00,30.7,25.5,29.83,NNW,344,5.0,9.0,81,0.00,,,0.00,30.0,meteohub,2013-03-25 12:09:00,
2013-03-25 08:14:00,30.7,25.3,29.83,North,5,3.0,12.0,80,0.00,,,0.00,35.0,meteohub,2013-03-25 12:14:00,
2013-03-25 08:19:00,30.7,25.3,29.83,NE,38,4.0,13.0,80,0.00,,,0.00,40.0,meteohub,2013-03-25 12:19:00,
2013-03-25 08:24:00,30.7,25.3,29.84,ENE,65,8.0,13.0,80,0.00,,,0.00,46.0,meteohub,2013-03-25 12:24:00,
2013-03-25 08:29:00,30.7,25.3,29.84,North,10,6.0,13.0,80,0.00,,,0.00,51.0,meteohub,2013-03-25 12:29:00,
2013-03-25 08:34:00,30.9,25.5,29.83,NNE,24,5.0,13.0,80,0.00,,,0.00,60.0,meteohub,2013-03-25 12:34:00,
2013-03-25 08:39:00,30.9,25.5,29.83,East,90,7.0,11.0,80,0.00,,,0.00,67.0,meteohub,2013-03-25 12:39:00,
2013-03-25 08:44:00,30.9,25.5,29.84,NNE,18,4.0,11.0,80,0.00,,,0.00,74.0,meteohub,2013-03-25 12:44:00,
2013-03-25 08:50:00,30.9,25.5,29.84,North,11,7.0,11.0,80,0.00,,,0.00,77.0,meteohub,2013-03-25 12:50:00,
2013-03-25 08:55:00,30.9,25.5,29.84,NNE,19,5.0,14.0,80,0.00,,,0.00,83.0,meteohub,2013-03-25 12:55:00,
2013-03-25 09:00:00,30.9,25.5,29.84,NE,49,4.0,14.0,80,0.00,,,0.00,91.0,meteohub,2013-03-25 13:00:00,
2013-03-25 09:05:00,31.1,25.9,29.84,ENE,74,3.0,8.0,81,0.00,,,0.00,109.0,meteohub,2013-03-25 13:05:00,
2013-03-25 09:10:00,31.1,25.7,29.84,ENE,76,5.0,11.0,80,0.00,,,0.00,123.0,meteohub,2013-03-25 13:10:00,
2013-03-25 09:15:00,31.3,25.9,29.85,NE,53,4.0,11.0,80,0.00,,,0.00,146.0,meteohub,2013-03-25 13:15:00,
2013-03-25 09:20:00,31.3,25.9,29.85,NE,51,5.0,11.0,80,0.00,,,0.00,128.0,meteohub,2013-03-25 13:20:00,
2013-03-25 09:25:00,31.3,25.9,29.85,North,350,3.0,11.0,80,0.00,,,0.00,158.0,meteohub,2013-03-25 13:25:00,
2013-03-25 09:30:00,31.3,25.9,29.84,ESE,103,8.0,12.0,80,0.00,,,0.00,153.0,meteohub,2013-03-25 13:30:00,
2013-03-25 09:35:00,31.3,26.1,29.85,North,5,7.0,13.0,81,0.00,,,0.00,181.0,meteohub,2013-03-25 13:35:00,
2013-03-25 09:40:00,31.3,26.4,29.85,ENE,77,7.0,13.0,82,0.00,,,0.00,172.0,meteohub,2013-03-25 13:40:00,
2013-03-25 09:45:00,31.3,26.4,29.85,NNE,21,9.0,13.0,82,0.00,,,0.00,174.0,meteohub,2013-03-25 13:45:00,
2013-03-25 09:50:00,31.5,26.2,29.85,North,355,4.0,12.0,81,0.00,,,0.00,241.0,meteohub,2013-03-25 13:50:00,
2013-03-25 09:55:00,31.8,26.4,29.85,NNW,333,4.0,12.0,80,0.00,,,0.00,236.0,meteohub,2013-03-25 13:55:00,
2013-03-25 10:00:00,31.8,26.4,29.85,NE,55,4.0,11.0,80,0.00,,,0.00,246.0,meteohub,2013-03-25 14:00:00,
2013-03-25 10:05:00,32.4,26.6,29.85,NNE,27,5.0,13.0,79,0.00,,,0.00,258.0,meteohub,2013-03-25 14:05:00,
2013-03-25 10:10:00,32.4,26.6,29.85,NNE,12,5.0,13.0,79,0.00,,,0.00,311.0,meteohub,2013-03-25 14:10:00,
2013-03-25 10:15:00,32.5,26.4,29.85,NNE,22,7.0,15.0,78,0.00,,,0.00,315.0,meteohub,2013-03-25 14:15:00,
2013-03-25 10:20:00,32.5,26.4,29.85,NNW,344,3.0,15.0,78,0.00,,,0.00,309.0,meteohub,2013-03-25 14:20:00,
2013-03-25 10:25:00,32.5,26.4,29.85,NE,49,4.0,15.0,78,0.00,,,0.00,279.0,meteohub,2013-03-25 14:25:00,
2013-03-25 10:30:00,32.9,27.1,29.85,North,355,4.0,15.0,79,0.00,,,0.00,425.0,meteohub,2013-03-25 14:30:00,
2013-03-25 10:35:00,33.3,27.1,29.85,North,0,2.0,13.0,78,0.00,,,0.00,297.0,meteohub,2013-03-25 14:35:00,
2013-03-25 10:40:00,33.3,27.1,29.85,NNE,12,4.0,9.0,78,0.00,,,0.00,287.0,meteohub,2013-03-25 14:40:00,
2013-03-25 10:45:00,33.3,26.8,29.85,NE,51,3.0,10.0,77,0.00,,,0.00,262.0,meteohub,2013-03-25 14:45:00,
2013-03-25 10:50:00,33.3,27.1,29.85,WNW,288,3.0,10.0,78,0.00,,,0.00,285.0,meteohub,2013-03-25 14:50:00,
2013-03-25 10:55:00,33.3,26.8,29.85,NNE,21,7.0,10.0,77,0.00,,,0.00,313.0,meteohub,2013-03-25 14:55:00,
2013-03-25 11:00:00,33.4,27.0,29.85,North,355,3.0,12.0,77,0.00,,,0.00,457.0,meteohub,2013-03-25 15:00:00,
2013-03-25 11:05:00,34.2,27.3,29.85,North,9,2.0,12.0,76,0.00,,,0.00,380.0,meteohub,2013-03-25 15:05:00,
2013-03-25 11:10:00,33.8,26.8,29.85,NE,53,4.0,13.0,75,0.00,,,0.00,401.0,meteohub,2013-03-25 15:10:00,
2013-03-25 11:15:00,34.2,27.1,29.85,North,10,5.0,13.0,75,0.00,,,0.00,468.0,meteohub,2013-03-25 15:15:00,
2013-03-25 11:20:00,34.5,26.8,29.85,North,355,4.0,13.0,73,0.00,,,0.00,573.0,meteohub,2013-03-25 15:20:00,
2013-03-25 11:25:00,34.7,27.0,29.85,ENE,74,4.0,12.0,73,0.00,,,0.00,517.0,meteohub,2013-03-25 15:25:00,
2013-03-25 11:30:00,34.5,26.4,29.86,NNE,28,5.0,12.0,72,0.00,,,0.00,457.0,meteohub,2013-03-25 15:30:00,
2013-03-25 11:36:00,35.2,27.1,29.85,North,355,9.0,12.0,72,0.00,,,0.00,533.0,meteohub,2013-03-25 15:36:00,
2013-03-25 11:41:00,35.1,26.6,29.86,NNE,23,10.0,14.0,71,0.00,,,0.00,545.0,meteohub,2013-03-25 15:41:00,
2013-03-25 11:46:00,34.9,26.4,29.86,NE,45,3.0,14.0,71,0.00,,,0.00,471.0,meteohub,2013-03-25 15:46:00,
2013-03-25 11:51:00,35.1,27.0,29.86,NNW,328,4.0,14.0,72,0.00,,,0.00,468.0,meteohub,2013-03-25 15:51:00,
2013-03-25 11:56:00,35.4,27.3,29.86,NE,40,4.0,14.0,72,0.00,,,0.00,564.0,meteohub,2013-03-25 15:56:00,
2013-03-25 12:01:00,35.2,26.8,29.86,NNE,18,4.0,12.0,71,0.00,,,0.00,496.0,meteohub,2013-03-25 16:01:00,
2013-03-25 12:06:00,35.2,26.4,29.86,NE,43,8.0,11.0,70,0.00,,,0.00,548.0,meteohub,2013-03-25 16:06:00,
2013-03-25 12:11:00,35.1,26.6,29.86,North,355,4.0,14.0,71,0.00,,,0.00,480.0,meteohub,2013-03-25 16:11:00,
2013-03-25 12:17:00,35.2,26.8,29.86,NNW,327,3.0,14.0,71,0.00,,,0.00,475.0,meteohub,2013-03-25 16:17:00,
2013-03-25 12:22:00,35.4,27.3,29.86,NE,36,6.0,14.0,72,0.00,,,0.00,482.0,meteohub,2013-03-25 16:22:00,
2013-03-25 12:27:00,35.6,27.9,29.86,NNE,22,3.0,8.0,73,0.00,,,0.00,469.0,meteohub,2013-03-25 16:27:00,
2013-03-25 12:32:00,35.8,26.6,29.86,NNW,337,4.0,8.0,69,0.00,,,0.00,503.0,meteohub,2013-03-25 16:32:00,
2013-03-25 12:37:00,36.0,26.4,29.86,NE,56,3.0,9.0,68,0.00,,,0.00,522.0,meteohub,2013-03-25 16:37:00,
2013-03-25 12:42:00,36.0,26.4,29.86,North,5,9.0,10.0,68,0.00,,,0.00,557.0,meteohub,2013-03-25 16:42:00,
2013-03-25 12:47:00,35.8,26.2,29.86,North,5,3.0,10.0,68,0.00,,,0.00,533.0,meteohub,2013-03-25 16:47:00,
2013-03-25 12:52:00,36.1,26.6,29.86,NNE,22,7.0,13.0,68,0.00,,,0.00,534.0,meteohub,2013-03-25 16:52:00,
2013-03-25 12:57:00,36.1,27.0,29.86,NNE,24,11.0,13.0,69,0.00,,,0.00,466.0,meteohub,2013-03-25 16:57:00,
2013-03-25 13:02:00,36.0,26.8,29.86,ENE,59,11.0,11.0,69,0.00,,,0.00,471.0,meteohub,2013-03-25 17:02:00,
2013-03-25 13:07:00,36.1,27.0,29.86,ENE,78,8.0,16.0,69,0.00,,,0.00,533.0,meteohub,2013-03-25 17:07:00,
2013-03-25 13:12:00,36.7,27.5,29.86,North,9,5.0,16.0,69,0.00,,,0.00,503.0,meteohub,2013-03-25 17:12:00,
2013-03-25 13:17:00,37.0,27.1,29.86,North,0,7.0,16.0,67,0.00,,,0.00,541.0,meteohub,2013-03-25 17:17:00,
2013-03-25 13:22:00,36.9,27.0,29.86,NE,42,7.0,11.0,67,0.00,,,0.00,508.0,meteohub,2013-03-25 17:22:00,
2013-03-25 13:28:00,36.3,27.1,29.86,NNE,25,2.0,10.0,69,0.00,,,0.00,485.0,meteohub,2013-03-25 17:28:00,
2013-03-25 13:33:00,36.7,26.8,29.86,East,94,8.0,10.0,67,0.00,,,0.00,476.0,meteohub,2013-03-25 17:33:00,
2013-03-25 13:38:00,36.5,27.0,29.86,NNW,344,3.0,11.0,68,0.00,,,0.00,517.0,meteohub,2013-03-25 17:38:00,
2013-03-25 13:43:00,36.7,26.4,29.86,NNE,23,4.0,11.0,66,0.00,,,0.00,455.0,meteohub,2013-03-25 17:43:00,
2013-03-25 13:48:00,37.0,27.1,29.86,NNE,28,4.0,11.0,67,0.00,,,0.00,432.0,meteohub,2013-03-25 17:48:00,
2013-03-25 13:53:00,36.7,26.8,29.86,NNE,14,5.0,10.0,67,0.00,,,0.00,554.0,meteohub,2013-03-25 17:53:00,
2013-03-25 13:58:00,36.9,27.3,29.86,North,11,3.0,10.0,68,0.00,,,0.00,687.0,meteohub,2013-03-25 17:58:00,
2013-03-25 14:03:00,38.1,27.9,29.86,NE,41,4.0,10.0,66,0.00,,,0.00,615.0,meteohub,2013-03-25 18:03:00,
2013-03-25 14:08:00,37.2,27.7,29.86,East,92,5.0,12.0,68,0.00,,,0.00,643.0,meteohub,2013-03-25 18:08:00,
2013-03-25 14:13:00,37.6,28.8,29.86,North,11,3.0,12.0,70,0.00,,,0.00,585.0,meteohub,2013-03-25 18:13:00,
2013-03-25 14:18:00,37.2,28.4,29.87,NNE,14,3.0,12.0,70,0.00,,,0.00,501.0,meteohub,2013-03-25 18:18:00,
2013-03-25 14:23:00,37.4,29.1,29.87,North,5,4.0,10.0,72,0.00,,,0.00,584.0,meteohub,2013-03-25 18:23:00,
2013-03-25 14:28:00,36.9,28.9,29.86,North,11,3.0,10.0,73,0.00,,,0.00,527.0,meteohub,2013-03-25 18:28:00,
2013-03-25 14:33:00,36.7,29.1,29.87,NNW,347,2.0,9.0,74,0.00,,,0.00,492.0,meteohub,2013-03-25 18:33:00,
2013-03-25 14:40:00,36.9,28.9,29.86,NNW,342,2.0,9.0,73,0.00,,,0.00,573.0,meteohub,2013-03-25 18:40:00,
2013-03-25 14:45:00,37.0,28.9,29.86,NNE,26,5.0,8.0,72,0.00,,,0.00,751.0,meteohub,2013-03-25 18:45:00,
2013-03-25 14:50:00,37.6,29.1,29.86,NW,314,3.0,7.0,71,0.00,,,0.00,708.0,meteohub,2013-03-25 18:50:00,
2013-03-25 14:55:00,38.1,28.9,29.86,NNW,327,3.0,6.0,69,0.00,,,0.00,594.0,meteohub,2013-03-25 18:55:00,
2013-03-25 15:00:00,38.5,29.1,29.86,NW,321,2.0,6.0,69,0.00,,,0.00,480.0,meteohub,2013-03-25 19:00:00,
2013-03-25 15:05:00,38.1,28.9,29.86,NW,307,2.0,6.0,69,0.00,,,0.00,487.0,meteohub,2013-03-25 19:05:00,
2013-03-25 15:10:00,38.7,29.3,29.86,WNW,301,3.0,6.0,69,0.00,,,0.00,548.0,meteohub,2013-03-25 19:10:00,
2013-03-25 15:15:00,38.1,28.6,29.86,NNW,331,3.0,6.0,68,0.00,,,0.00,513.0,meteohub,2013-03-25 19:15:00,
2013-03-25 15:20:00,38.5,28.8,29.86,NNW,327,2.0,5.0,68,0.00,,,0.00,575.0,meteohub,2013-03-25 19:20:00,
2013-03-25 15:25:00,38.5,28.0,29.86,NE,34,2.0,5.0,66,0.00,,,0.00,506.0,meteohub,2013-03-25 19:25:00,
2013-03-25 15:30:00,38.7,28.2,29.86,NW,325,2.0,4.0,66,0.00,,,0.00,503.0,meteohub,2013-03-25 19:30:00,
2013-03-25 15:35:00,38.7,27.9,29.86,NNE,12,3.0,7.0,65,0.00,,,0.00,582.0,meteohub,2013-03-25 19:35:00,
2013-03-25 15:40:00,39.6,28.4,29.86,NNW,336,1.0,8.0,64,0.00,,,0.00,564.0,meteohub,2013-03-25 19:40:00,
2013-03-25 15:45:00,39.6,27.1,29.86,NNE,24,3.0,8.0,61,0.00,,,0.00,589.0,meteohub,2013-03-25 19:45:00,
2013-03-25 15:50:00,39.7,27.0,29.86,NE,35,2.0,8.0,60,0.00,,,0.00,566.0,meteohub,2013-03-25 19:50:00,
2013-03-25 15:55:00,40.5,26.8,29.86,NE,38,3.0,9.0,58,0.00,,,0.00,645.0,meteohub,2013-03-25 19:55:00,
2013-03-25 16:00:00,40.8,26.8,29.86,NNW,332,3.0,9.0,57,0.00,,,0.00,571.0,meteohub,2013-03-25 20:00:00,
2013-03-25 16:05:00,40.6,26.2,29.86,NNW,348,3.0,8.0,56,0.00,,,0.00,524.0,meteohub,2013-03-25 20:05:00,
2013-03-25 16:10:00,41.2,26.6,29.86,NNE,15,1.0,10.0,56,0.00,,,0.00,533.0,meteohub,2013-03-25 20:10:00,
2013-03-25 16:15:00,41.4,25.0,29.85,NW,317,3.0,10.0,52,0.00,,,0.00,527.0,meteohub,2013-03-25 20:15:00,
2013-03-25 16:20:00,41.7,26.2,29.86,NNE,18,4.0,10.0,54,0.00,,,0.00,550.0,meteohub,2013-03-25 20:20:00,
2013-03-25 16:26:00,41.4,25.0,29.86,NNE,27,6.0,7.0,52,0.00,,,0.00,483.0,meteohub,2013-03-25 20:26:00,
2013-03-25 16:31:00,40.8,25.9,29.86,NW,319,4.0,7.0,55,0.00,,,0.00,454.0,meteohub,2013-03-25 20:31:00,
2013-03-25 16:36:00,40.6,26.6,29.86,NW,308,3.0,8.0,57,0.00,,,0.00,462.0,meteohub,2013-03-25 20:36:00,
2013-03-25 16:41:00,40.5,26.4,29.86,NW,317,4.0,8.0,57,0.00,,,0.00,436.0,meteohub,2013-03-25 20:41:00,
2013-03-25 16:46:00,40.6,27.0,29.86,NNE,13,2.0,6.0,58,0.00,,,0.00,413.0,meteohub,2013-03-25 20:46:00,
2013-03-25 16:51:00,40.3,26.6,29.86,NNW,337,4.0,6.0,58,0.00,,,0.00,427.0,meteohub,2013-03-25 20:51:00,
2013-03-25 16:56:00,39.9,27.1,29.86,NNW,345,4.0,7.0,60,0.00,,,0.00,431.0,meteohub,2013-03-25 20:56:00,
2013-03-25 17:01:00,39.9,27.5,29.86,NNW,338,4.0,7.0,61,0.00,,,0.00,332.0,meteohub,2013-03-25 21:01:00,
2013-03-25 17:06:00,39.4,27.5,29.86,NNW,348,2.0,7.0,62,0.00,,,0.00,258.0,meteohub,2013-03-25 21:06:00,
2013-03-25 17:12:00,39.2,28.0,29.86,NNW,338,4.0,6.0,64,0.00,,,0.00,657.0,meteohub,2013-03-25 21:12:00,
2013-03-25 17:17:00,39.7,27.9,29.86,NNW,340,3.0,6.0,62,0.00,,,0.00,323.0,meteohub,2013-03-25 21:17:00,
2013-03-25 17:22:00,39.7,28.2,29.87,NNW,329,3.0,6.0,63,0.00,,,0.00,258.0,meteohub,2013-03-25 21:22:00,
2013-03-25 17:27:00,39.4,27.9,29.87,NNW,340,3.0,6.0,63,0.00,,,0.00,229.0,meteohub,2013-03-25 21:27:00,
2013-03-25 17:32:00,39.0,27.9,29.87,North,355,4.0,8.0,64,0.00,,,0.00,239.0,meteohub,2013-03-25 21:32:00,
2013-03-25 17:37:00,39.0,28.2,29.87,NW,304,3.0,8.0,65,0.00,,,0.00,236.0,meteohub,2013-03-25 21:37:00,
2013-03-25 17:42:00,39.0,28.2,29.88,NNW,337,2.0,8.0,65,0.00,,,0.00,218.0,meteohub,2013-03-25 21:42:00,
2013-03-25 17:47:00,38.8,28.0,29.88,NNW,346,3.0,7.0,65,0.00,,,0.00,197.0,meteohub,2013-03-25 21:47:00,
2013-03-25 17:52:00,38.8,28.0,29.88,North,5,2.0,7.0,65,0.00,,,0.00,192.0,meteohub,2013-03-25 21:52:00,
2013-03-25 17:57:00,38.8,28.8,29.88,WNW,293,3.0,7.0,67,0.00,,,0.00,171.0,meteohub,2013-03-25 21:57:00,
2013-03-25 18:03:00,38.7,28.6,29.88,North,350,3.0,5.0,67,0.00,,,0.00,158.0,meteohub,2013-03-25 22:03:00,
2013-03-25 18:08:00,38.7,28.9,29.88,NNE,31,2.0,5.0,68,0.00,,,0.00,162.0,meteohub,2013-03-25 22:08:00,
2013-03-25 18:13:00,38.7,28.9,29.88,NNW,340,2.0,5.0,68,0.00,,,0.00,167.0,meteohub,2013-03-25 22:13:00,
2013-03-25 18:18:00,38.7,28.9,29.88,NNW,340,2.0,5.0,68,0.00,,,0.00,153.0,meteohub,2013-03-25 22:18:00,
2013-03-25 18:23:00,38.7,28.6,29.88,NNW,333,2.0,5.0,67,0.00,,,0.00,127.0,meteohub,2013-03-25 22:23:00,
2013-03-25 18:28:00,38.5,28.4,29.88,NNW,336,3.0,5.0,67,0.00,,,0.00,127.0,meteohub,2013-03-25 22:28:00,
2013-03-25 18:33:00,38.3,28.8,29.88,NW,325,3.0,4.0,68,0.00,,,0.00,97.0,meteohub,2013-03-25 22:33:00,
2013-03-25 18:38:00,38.1,28.2,29.89,NW,317,2.0,5.0,67,0.00,,,0.00,102.0,meteohub,2013-03-25 22:38:00,
2013-03-25 18:44:00,38.1,28.6,29.89,NNW,331,2.0,5.0,68,0.00,,,0.00,97.0,meteohub,2013-03-25 22:44:00,
2013-03-25 18:49:00,37.9,29.1,29.89,NNW,342,3.0,4.0,70,0.00,,,0.00,90.0,meteohub,2013-03-25 22:49:00,
2013-03-25 18:54:00,37.8,28.6,29.89,NNW,333,3.0,4.0,69,0.00,,,0.00,74.0,meteohub,2013-03-25 22:54:00,
2013-03-25 18:59:00,37.8,28.6,29.89,NW,326,4.0,5.0,69,0.00,,,0.00,63.0,meteohub,2013-03-25 22:59:00,
2013-03-25 19:04:00,37.6,28.8,29.90,NW,319,2.0,5.0,70,0.00,,,0.00,51.0,meteohub,2013-03-25 23:04:00,
2013-03-25 19:09:00,37.6,28.4,29.90,NNW,332,3.0,5.0,69,0.00,,,0.00,46.0,meteohub,2013-03-25 23:09:00,
2013-03-25 19:14:00,37.4,28.6,29.90,NW,321,2.0,5.0,70,0.00,,,0.00,39.0,meteohub,2013-03-25 23:14:00,
2013-03-25 19:19:00,37.2,28.4,29.90,NNW,332,2.0,5.0,70,0.00,,,0.00,32.0,meteohub,2013-03-25 23:19:00,
2013-03-25 19:24:00,37.2,28.4,29.91,NNW,336,3.0,5.0,70,0.00,,,0.00,26.0,meteohub,2013-03-25 23:24:00,
2013-03-25 19:29:00,37.0,28.6,29.91,NNW,331,3.0,5.0,71,0.00,,,0.00,19.0,meteohub,2013-03-25 23:29:00,
2013-03-25 19:34:00,37.0,28.6,29.91,NW,310,3.0,5.0,71,0.00,,,0.00,18.0,meteohub,2013-03-25 23:34:00,
2013-03-25 19:39:00,36.9,28.4,29.91,NW,315,2.0,5.0,71,0.00,,,0.00,12.0,meteohub,2013-03-25 23:39:00,
2013-03-25 19:44:00,36.9,28.4,29.91,NNW,329,3.0,4.0,71,0.00,,,0.00,9.0,meteohub,2013-03-25 23:44:00,
2013-03-25 19:49:00,36.9,28.4,29.91,NW,314,3.0,4.0,71,0.00,,,0.00,7.0,meteohub,2013-03-25 23:49:00,
2013-03-25 19:54:00,36.7,28.6,29.91,NW,315,2.0,4.0,72,0.00,,,0.00,0.0,meteohub,2013-03-25 23:54:00,
2013-03-25 19:59:00,36.7,28.6,29.91,NW,326,1.0,4.0,72,0.00,,,0.00,0.0,meteohub,2013-03-25 23:59:00,
2013-03-25 20:04:00,36.5,28.8,29.91,NW,311,3.0,4.0,73,0.00,,,0.00,0.0,meteohub,2013-03-26 00:04:00,
2013-03-25 20:09:00,36.3,28.8,29.92,NW,321,2.0,4.0,74,0.00,,,0.00,0.0,meteohub,2013-03-26 00:09:00,
2013-03-25 20:14:00,36.3,28.8,29.92,NNW,327,2.0,4.0,74,0.00,,,0.00,0.0,meteohub,2013-03-26 00:14:00,
2013-03-25 20:19:00,36.1,28.4,29.92,NNW,327,3.0,4.0,73,0.00,,,0.00,0.0,meteohub,2013-03-26 00:19:00,
2013-03-25 20:24:00,36.3,29.1,29.92,NNW,336,2.0,4.0,75,0.00,,,0.00,0.0,meteohub,2013-03-26 00:24:00,
2013-03-25 20:29:00,36.1,28.6,29.92,NW,320,1.0,4.0,74,0.00,,,0.00,0.0,meteohub,2013-03-26 00:29:00,
2013-03-25 20:35:00,36.1,28.6,29.92,NW,322,1.0,4.0,74,0.00,,,0.00,0.0,meteohub,2013-03-26 00:35:00,
2013-03-25 20:40:00,36.1,28.6,29.92,NW,319,2.0,3.0,74,0.00,,,0.00,0.0,meteohub,2013-03-26 00:40:00,
2013-03-25 20:45:00,36.1,28.9,29.92,NNW,331,2.0,4.0,75,0.00,,,0.00,0.0,meteohub,2013-03-26 00:45:00,
2013-03-25 20:50:00,36.1,28.9,29.93,NNW,329,3.0,4.0,75,0.00,,,0.00,0.0,meteohub,2013-03-26 00:50:00,
2013-03-25 20:55:00,36.1,28.9,29.93,NW,324,2.0,5.0,75,0.00,,,0.00,0.0,meteohub,2013-03-26 00:55:00,
2013-03-25 21:00:00,36.1,28.9,29.93,NNW,331,1.0,5.0,75,0.00,,,0.00,0.0,meteohub,2013-03-26 01:00:00,
2013-03-25 21:05:00,36.0,29.1,29.93,NW,319,2.0,5.0,76,0.00,,,0.00,0.0,meteohub,2013-03-26 01:05:00,
2013-03-25 21:10:00,36.0,28.8,29.93,NW,323,2.0,4.0,75,0.00,,,0.00,0.0,meteohub,2013-03-26 01:10:00,
2013-03-25 21:15:00,36.0,29.1,29.93,NW,326,3.0,4.0,76,0.00,,,0.00,0.0,meteohub,2013-03-26 01:15:00,
2013-03-25 21:20:00,36.0,28.8,29.94,NNW,331,2.0,4.0,75,0.00,,,0.00,0.0,meteohub,2013-03-26 01:20:00,
2013-03-25 21:25:00,36.0,29.1,29.94,NW,317,2.0,4.0,76,0.00,,,0.00,0.0,meteohub,2013-03-26 01:25:00,
2013-03-25 21:30:00,35.8,28.9,29.94,NNW,329,3.0,4.0,76,0.00,,,0.00,0.0,meteohub,2013-03-26 01:30:00,
2013-03-25 21:35:00,35.8,29.3,29.94,NW,316,3.0,4.0,77,0.00,,,0.00,0.0,meteohub,2013-03-26 01:35:00,
2013-03-25 21:40:00,35.8,29.3,29.94,NW,321,2.0,4.0,77,0.00,,,0.00,0.0,meteohub,2013-03-26 01:40:00,
2013-03-25 21:45:00,35.8,29.3,29.94,NNW,327,2.0,4.0,77,0.00,,,0.00,0.0,meteohub,2013-03-26 01:45:00,
2013-03-25 21:50:00,35.6,29.1,29.94,NW,325,3.0,4.0,77,0.00,,,0.00,0.0,meteohub,2013-03-26 01:50:00,
2013-03-25 21:55:00,35.4,29.3,29.94,NW,319,1.0,3.0,78,0.00,,,0.00,0.0,meteohub,2013-03-26 01:55:00,
2013-03-25 22:00:00,35.4,28.9,29.94,NW,319,1.0,3.0,77,0.00,,,0.00,0.0,meteohub,2013-03-26 02:00:00,
2013-03-25 22:05:00,35.4,29.3,29.94,NW,319,1.0,3.0,78,0.00,,,0.00,0.0,meteohub,2013-03-26 02:05:00,
2013-03-25 22:10:00,35.2,29.1,29.95,NW,317,2.0,3.0,78,0.00,,,0.00,0.0,meteohub,2013-03-26 02:10:00,
2013-03-25 22:15:00,35.2,29.1,29.95,NW,318,1.0,3.0,78,0.00,,,0.00,0.0,meteohub,2013-03-26 02:15:00,
2013-03-25 22:21:00,35.2,29.1,29.95,NW,318,1.0,3.0,78,0.00,,,0.00,0.0,meteohub,2013-03-26 02:21:00,
2013-03-25 22:26:00,35.2,29.3,29.95,NW,318,2.0,3.0,79,0.00,,,0.00,0.0,meteohub,2013-03-26 02:26:00,
2013-03-25 22:31:00,35.2,29.1,29.96,NW,315,2.0,3.0,78,0.00,,,0.00,0.0,meteohub,2013-03-26 02:31:00,
2013-03-25 22:36:00,35.2,29.3,29.96,NW,315,2.0,3.0,79,0.00,,,0.00,0.0,meteohub,2013-03-26 02:36:00,
2013-03-25 22:41:00,35.2,29.3,29.95,NW,315,1.0,3.0,79,0.00,,,0.00,0.0,meteohub,2013-03-26 02:41:00,
2013-03-25 22:46:00,35.1,29.1,29.96,NW,315,1.0,3.0,79,0.00,,,0.00,0.0,meteohub,2013-03-26 02:46:00,
2013-03-25 22:52:00,35.1,29.1,29.96,North,0,2.0,3.0,79,0.00,,,0.00,0.0,meteohub,2013-03-26 02:52:00,
2013-03-25 22:58:00,35.1,29.1,29.96,NNW,329,2.0,3.0,79,0.00,,,0.00,0.0,meteohub,2013-03-26 02:58:00,
2013-03-25 23:03:00,35.1,29.5,29.96,NW,322,1.0,3.0,80,0.00,,,0.00,0.0,meteohub,2013-03-26 03:03:00,
2013-03-25 23:08:00,35.1,29.5,29.96,NW,325,1.0,3.0,80,0.00,,,0.00,0.0,meteohub,2013-03-26 03:08:00,
2013-03-25 23:13:00,35.1,29.5,29.96,NNW,335,1.0,3.0,80,0.00,,,0.00,0.0,meteohub,2013-03-26 03:13:00,
2013-03-25 23:18:00,35.1,29.5,29.96,NNW,327,1.0,3.0,80,0.00,,,0.00,0.0,meteohub,2013-03-26 03:18:00,
2013-03-25 23:23:00,35.1,29.5,29.96,NNW,329,2.0,5.0,80,0.00,,,0.00,0.0,meteohub,2013-03-26 03:23:00,
2013-03-25 23:28:00,35.1,29.1,29.96,NNW,329,1.0,5.0,79,0.00,,,0.00,0.0,meteohub,2013-03-26 03:28:00,
2013-03-25 23:33:00,35.1,29.1,29.96,NNW,329,1.0,5.0,79,0.00,,,0.00,0.0,meteohub,2013-03-26 03:33:00,
2013-03-25 23:38:00,35.1,29.8,29.96,NNW,329,1.0,2.0,81,0.00,,,0.00,0.0,meteohub,2013-03-26 03:38:00,
2013-03-25 23:43:00,34.9,29.7,29.96,NNW,329,1.0,2.0,81,0.00,,,0.00,0.0,meteohub,2013-03-26 03:43:00,
2013-03-25 23:48:00,34.9,29.3,29.96,NNW,329,1.0,2.0,80,0.00,,,0.00,0.0,meteohub,2013-03-26 03:48:00,
2013-03-25 23:53:00,34.9,29.7,29.96,NNW,329,1.0,2.0,81,0.00,,,0.00,0.0,meteohub,2013-03-26 03:53:00,
2013-03-25 23:58:00,34.9,29.3,29.96,NNW,329,1.0,2.0,80,0.00,,,0.00,0.0,meteohub,2013-03-26 03:58:00,